Weather History for Marathon, FL

Change the Weather History Date:

Saturday, November 19, 2011

  Actual Average Record
Temperature  
Mean Temperature 80 °F 75 °F  
Max Temperature 83 °F 80 °F 84 °F (1998)
Min Temperature 77 °F 71 °F 56 °F (2008)
Degree Days  
Heating Degree Days 0 0  
Month to date heating degree days 0 0  
Since 1 July heating degree days 0 0  
Cooling Degree Days 15 10  
Month to date cooling degree days 224 218  
Year to date cooling degree days 5003 4657  
Growing Degree Days 30 (Base 50)    
Moisture  
Dew Point 71 °F    
Average Humidity 74    
Maximum Humidity 82    
Minimum Humidity 65    
Precipitation  
Precipitation T in 0.06 in 0.09 in (2005)
Month to date precipitation 0.30 2.04  
Year to date precipitation 35.81 43.37  
Snow  
Snow 0.00 in - - ()
Month to date snowfall 0.0  
Since 1 July snowfall 0.0  
Since 1 September snowfall 0.0  
Snow Depth 0.00 in    
Sea Level Pressure  
Sea Level Pressure 30.11 in    
Wind  
Wind Speed 13 mph (East)    
Max Wind Speed 20 mph    
Max Gust Speed 26 mph    
Visibility 10 miles    
Events Rain    
T = Trace of Precipitation, MM = Missing Value Source: NWS Daily Summary

Daily Weather History Graph

Daily Weather History Graph

Search for Another Location

Airport:

Trip Planner

Search our weather history database for the weather conditions in past years. The results will help you decide how hot, cold, wet, or windy it might be!

Date:

Astronomy

Nov. 19, 2011 Rise Set
Actual Time 6:42 AM EST 5:35 PM EST
Civil Twilight 6:18 AM EST 6:00 PM EST
Nautical Twilight 5:51 AM EST 6:27 PM EST
Astronomical Twilight 5:23 AM EST 6:55 PM EST
Moon 12:40 AM EST (11/19) 1:18 PM EST (11/19)
Length of Visible Light 11h 41m
Length of Day
10h 52m
Last Quarter, 38% of the Moon is Illuminated
Nov 19
Last Quarter
Nov 25
New
Dec 2
First Quarter
Dec 10
Full
Dec 17
Last Quarter

Hourly Weather History & Observations

Time (EST) Temp. Heat Index Dew Point Humidity Pressure Visibility Wind Dir Wind Speed Gust Speed Precip Events Conditions
12:53 AM 78.1 °F - 71.1 °F 79% 30.09 in 10.0 mi East 11.5 mph - N/A   Partly Cloudy
1:53 AM 77.0 °F - 72.0 °F 84% 30.08 in 10.0 mi ENE 11.5 mph - N/A   Scattered Clouds
2:53 AM 78.1 °F - 72.0 °F 81% 30.07 in 10.0 mi East 13.8 mph 20.7 mph N/A   Scattered Clouds
3:53 AM 78.1 °F - 72.0 °F 81% 30.08 in 10.0 mi East 9.2 mph - N/A   Mostly Cloudy
4:02 AM 78.8 °F - 73.4 °F 83% 30.08 in 10.0 mi East 10.4 mph 17.3 mph 0.00 in Rain Light Rain
4:33 AM 78.8 °F - 71.6 °F 78% 30.07 in 10.0 mi East 8.1 mph - 0.00 in   Overcast
4:40 AM 78.8 °F - 71.6 °F 78% 30.07 in 10.0 mi ESE 11.5 mph 17.3 mph 0.00 in   Mostly Cloudy
4:50 AM 78.8 °F - 71.6 °F 78% 30.07 in 10.0 mi East 11.5 mph 18.4 mph 0.00 in   Mostly Cloudy
4:53 AM 78.1 °F - 71.1 °F 79% 30.08 in 10.0 mi East 9.2 mph 18.4 mph 0.00 in   Mostly Cloudy
6:53 AM 78.1 °F - 70.0 °F 76% 30.11 in 10.0 mi East 10.4 mph 20.7 mph N/A   Partly Cloudy
8:53 AM 80.1 °F 83.2 °F 70.0 °F 71% 30.14 in 10.0 mi East 13.8 mph 19.6 mph N/A   Clear
9:53 AM 82.0 °F 85.9 °F 70.0 °F 67% 30.15 in 10.0 mi East 15.0 mph 21.9 mph N/A   Clear
10:53 AM 82.0 °F 85.5 °F 69.1 °F 65% 30.16 in 10.0 mi East 12.7 mph 21.9 mph N/A   Partly Cloudy
11:53 AM 82.9 °F 87.0 °F 70.0 °F 65% 30.14 in 10.0 mi East 12.7 mph 21.9 mph N/A   Clear
12:53 PM 81.0 °F 84.9 °F 71.1 °F 72% 30.12 in 10.0 mi East 16.1 mph 24.2 mph N/A   Overcast
1:53 PM 82.0 °F 86.3 °F 71.1 °F 69% 30.12 in 10.0 mi ENE 17.3 mph 26.5 mph 0.00 in   Partly Cloudy
2:53 PM 81.0 °F 84.9 °F 71.1 °F 72% 30.11 in 10.0 mi East 15.0 mph 21.9 mph N/A   Clear
4:53 PM 80.1 °F 83.6 °F 71.1 °F 74% 30.11 in 10.0 mi ENE 13.8 mph 21.9 mph N/A   Scattered Clouds
5:53 PM 79.0 °F - 71.1 °F 77% 30.12 in 10.0 mi ENE 12.7 mph 19.6 mph N/A   Clear
7:53 PM 78.1 °F - 70.0 °F 76% 30.14 in 10.0 mi ENE 11.5 mph - N/A   Clear
8:53 PM 78.1 °F - 70.0 °F 76% 30.15 in 10.0 mi East 13.8 mph - N/A   Clear
10:53 PM 78.1 °F - 71.1 °F 79% 30.15 in 10.0 mi ENE 10.4 mph - N/A   Partly Cloudy
11:53 PM 78.1 °F - 70.0 °F 76% 30.14 in 10.0 mi ENE 9.2 mph - N/A   Clear